Istanbul, Turkey

10:11 AM +03 on November 19, 2017 (GMT +0300)
Ataturk

Weather History for LTBA - January, 2013

Change the Weather History Date:

Monday, January 21, 2013

  Actual Average Record
Temperature  
Mean Temperature 56 °F -  
Max Temperature 63 °F 47 °F 63 °F (2013)
Min Temperature 49 °F 37 °F 30 °F (2000)
Degree Days  
Heating Degree Days 9    
Growing Degree Days 6 (Base 50)    
Moisture  
Dew Point 43 °F    
Average Humidity 62    
Maximum Humidity 88    
Minimum Humidity 37    
Precipitation  
Precipitation 0.00 in - - ()
Sea Level Pressure  
Sea Level Pressure 29.87 in    
Wind  
Wind Speed 8 mph ()    
Max Wind Speed 16 mph    
Max Gust Speed -    
Visibility 6.2 miles    
Events Rain    
Averages and records for this station are not official NWS values.
T = Trace of Precipitation, MM = Missing Value Source: Averaged Metar Reports

Daily Weather History Graph

Daily Weather History Graph

Search for Another Location

Airport or City:

Trip Planner

Search our weather history database for the weather conditions in past years. The results will help you decide how hot, cold, wet, or windy it might be!

Date:

Astronomy

Jan. 21, 2013 Rise Set
Actual Time 7:24 AM EET 5:08 PM EET
Civil Twilight 6:54 AM EET 5:38 PM EET
Nautical Twilight 6:20 AM EET 6:11 PM EET
Astronomical Twilight 5:48 AM EET 6:44 PM EET
Moon 12:34 PM EET (1/21) 2:34 AM EET (1/21)
Length of Visible Light 10h 43m
Length of Day
9h 44m
Waxing Gibbous, 72% of the Moon is Illuminated
Jan 21
Waxing Gibbous
Jan 27
Full
Feb 3
Last Quarter
Feb 10
New
Feb 17
First Quarter

Hourly Weather History & Observations

Time (EET) Temp. Dew Point Humidity Pressure Visibility Wind Dir Wind Speed Gust Speed Precip Events Conditions
12:20 AM 53.6 °F 46.4 °F 77% 29.95 in 6.2 mi SW 10.4 mph - N/A   Partly Cloudy
12:50 AM 51.8 °F 48.2 °F 88% 29.95 in 6.2 mi SW 6.9 mph - N/A   Partly Cloudy
1:20 AM 53.6 °F 46.4 °F 77% 29.92 in 6.2 mi SW 13.8 mph - N/A   Partly Cloudy
1:50 AM 53.6 °F 46.4 °F 77% 29.92 in 6.2 mi SW 10.4 mph - N/A   Partly Cloudy
2:00 AM 53 °F 47 °F 73% 29.94 in 6 mi SW 10.4 mph - -   Scattered Clouds
2:20 AM 53.6 °F 46.4 °F 77% 29.92 in 6.2 mi WSW 11.5 mph - N/A   Partly Cloudy
2:50 AM 53.6 °F 46.4 °F 77% 29.92 in 6.2 mi SW 12.7 mph - N/A   Partly Cloudy
3:20 AM 53.6 °F 46.4 °F 77% 29.92 in - SW 11.5 mph - N/A   Clear
3:50 AM 51.8 °F 46.4 °F 82% 29.92 in - SW 11.5 mph - N/A   Clear
4:20 AM 50.0 °F 44.6 °F 82% 29.92 in - Variable 2.3 mph - N/A   Clear
4:50 AM 50.0 °F 46.4 °F 87% 29.92 in - Variable 1.2 mph - N/A   Clear
5:20 AM 51.8 °F 46.4 °F 82% 29.92 in - Variable 2.3 mph - N/A   Clear
5:50 AM 53.6 °F 44.6 °F 72% 29.92 in - Variable 4.6 mph - N/A   Clear
6:20 AM 55.4 °F 44.6 °F 67% 29.89 in - SW 9.2 mph - N/A   Clear
6:50 AM 53.6 °F 44.6 °F 72% 29.92 in - WSW 5.8 mph - N/A   Clear
7:20 AM 53.6 °F 44.6 °F 72% 29.92 in - WSW 4.6 mph - N/A   Clear
7:50 AM 55.4 °F 44.6 °F 67% 29.92 in - SW 9.2 mph - N/A   Clear
8:00 AM 55 °F 44 °F 58% 29.92 in 6 mi SW 9.2 mph - -  
8:20 AM 55.4 °F 44.6 °F 67% 29.92 in - SW 6.9 mph - N/A   Clear
8:50 AM 57.2 °F 44.6 °F 63% 29.92 in - SSW 12.7 mph - N/A   Clear
9:20 AM 57.2 °F 44.6 °F 63% 29.92 in - SW 10.4 mph - N/A   Clear
9:50 AM 55.4 °F 44.6 °F 67% 29.92 in - SSW 16.1 mph - N/A   Clear
10:20 AM 57.2 °F 44.6 °F 63% 29.92 in - SSW 16.1 mph - N/A   Clear
10:50 AM 57.2 °F 44.6 °F 63% 29.92 in - WSW 6.9 mph - N/A   Clear
11:20 AM 57.2 °F 44.6 °F 63% 29.92 in - SW 11.5 mph - N/A   Clear
11:50 AM 59.0 °F 44.6 °F 59% 29.92 in - SW 8.1 mph - N/A   Clear
12:20 PM 59.0 °F 44.6 °F 59% 29.89 in - WSW 5.8 mph - N/A   Clear
12:50 PM 57.2 °F 44.6 °F 63% 29.89 in - WSW 6.9 mph - N/A   Clear
1:20 PM 57.2 °F 42.8 °F 59% 29.86 in - WSW 10.4 mph - N/A   Clear
1:50 PM 60.8 °F 41.0 °F 48% 29.86 in - West 5.8 mph - N/A   Clear
2:00 PM 60 °F 41 °F 37% 29.87 in 6 mi West 5.8 mph - -   Clear
2:20 PM 59.0 °F 42.8 °F 55% 29.86 in - WSW 8.1 mph - N/A   Clear
2:50 PM 62.6 °F 39.2 °F 42% 29.86 in - WSW 10.4 mph - N/A   Clear
3:20 PM 60.8 °F 41.0 °F 48% 29.86 in - WSW 13.8 mph - N/A   Clear
3:50 PM 62.6 °F 39.2 °F 42% 29.86 in - SW 12.7 mph - N/A   Clear
4:20 PM 60.8 °F 39.2 °F 45% 29.86 in - West 10.4 mph - N/A   Clear
4:50 PM 59.0 °F 41.0 °F 51% 29.83 in - WSW 8.1 mph - N/A   Clear
5:20 PM 60.8 °F 39.2 °F 45% 29.83 in - SW 12.7 mph - N/A   Clear
5:50 PM 59.0 °F 41.0 °F 51% 29.83 in - SSW 9.2 mph - N/A   Clear
6:20 PM 59.0 °F 41.0 °F 51% 29.80 in - South 4.6 mph - N/A   Clear
6:50 PM 57.2 °F 41.0 °F 55% 29.80 in - East 4.6 mph - N/A   Clear
7:20 PM 57.2 °F 41.0 °F 55% 29.80 in - ESE 4.6 mph - N/A   Clear
7:50 PM 59.0 °F 39.2 °F 48% 29.80 in - Variable 3.5 mph - N/A   Clear
8:00 PM 60 °F 41 °F 37% 29.81 in 6 mi East 3.5 mph - -   Mostly Cloudy
8:20 PM 57.2 °F 41.0 °F 55% 29.80 in - East 4.6 mph - N/A   Clear
8:50 PM 55.4 °F 41.0 °F 58% 29.77 in 6.2 mi ESE 6.9 mph - N/A   Partly Cloudy
9:20 PM 57.2 °F 41.0 °F 55% 29.77 in 6.2 mi Variable 3.5 mph - N/A   Partly Cloudy
9:50 PM 57.2 °F 41.0 °F 55% 29.77 in 6.2 mi Variable 2.3 mph - N/A   Partly Cloudy
10:20 PM 53.6 °F 41.0 °F 62% 29.77 in 6.2 mi Variable 1.2 mph - N/A   Partly Cloudy
10:50 PM 59.0 °F 41.0 °F 51% 29.77 in 6.2 mi Variable 2.3 mph - N/A   Partly Cloudy
11:20 PM 57.2 °F 41.0 °F 55% 29.77 in 6.2 mi South 4.6 mph - N/A   Partly Cloudy
11:50 PM 57.2 °F 41.0 °F 55% 29.80 in 6.2 mi South 8.1 mph - N/A Rain Light Rain Showers